Location: Blue Sky Observatory
(43.1153°N, 70.9036°W)
Time: 03:59:46
(UTC-05:00)

Amateur Radio Satellites - All Passes

Search period start: 06 March 2015 03:29
Search period end: 07 March 2015 03:29
Location: Blue Sky Observatory, 43.1153°N, 70.9036°W

Satellite Date Start Highest point End Downlink Frequencies (MHz)
Time Altitude Azimuth
Gurwin Techsat 1B 06 Mar 03:31:38 03:36:10 29° 294° (WNW) 03:40:36 435.225
MOZHAYETS 4 06 Mar 03:35:47 03:40:20 78° 76° (ENE) 03:44:57
ITAMSAT 1 06 Mar 03:38:34 03:42:20 20° 298° (WNW) 03:45:55 435.822/435.867
HORYU 2 06 Mar 03:53:18 03:57:36 47° 289° (WNW) 04:01:52 437.375
JAS-2 06 Mar 04:01:29 04:09:01 66° 100° (E) 04:16:51 435.910
STRAND 1 06 Mar 04:08:33 04:10:11 12° 58° (ENE) 04:12:04 437.568
PCSat 06 Mar 04:08:41 04:14:01 54° 54° (NE) 04:19:19 145.827
CUBESAT XI-V 06 Mar 04:10:10 04:12:56 16° 63° (ENE) 04:15:53 437.345
AO-7 06 Mar 04:11:22 04:19:43 82° 107° (ESE) 04:28:01 29.400- 29.500
YUBILEINY 06 Mar 04:37:15 04:43:28 21° 280° (W) 04:49:15 435.215
RS-15 06 Mar 04:54:17 05:04:00 32° 26° (NNE) 05:14:14 29.354- 29.394
PRISM 06 Mar 04:55:09 04:59:03 42° 71° (ENE) 05:03:02 437.425
AIST 1 06 Mar 05:04:35 05:05:38 11° 84° (E) 05:06:55
MOZHAYETS 4 06 Mar 05:17:06 05:18:16 11° 274° (W) 05:19:08
STRAND 1 06 Mar 05:43:30 05:48:38 81° 75° (ENE) 05:53:50 437.568
CUBESAT XI-V 06 Mar 05:45:17 05:49:57 62° 260° (W) 05:54:39 437.345
JAS-2 06 Mar 05:47:17 05:53:38 30° 297° (WNW) 06:00:04 435.910
PCSat 06 Mar 05:52:51 05:57:07 23° 252° (WSW) 06:01:13 145.827
Cubesat XI-IV 06 Mar 05:53:38 05:58:56 57° 100° (E) 06:04:12 437.490
CUTE-I 06 Mar 06:01:26 06:06:47 66° 101° (E) 06:12:06 437.470
AO-7 06 Mar 06:05:15 06:11:45 26° 306° (NW) 06:17:59 29.400- 29.500
PRISM 06 Mar 06:32:00 06:34:49 17° 269° (W) 06:37:31 437.425
ISS 06 Mar 06:33:16 06:35:41 20° 135° (SE) 06:38:10 145.825
AIST 1 06 Mar 06:38:24 06:42:45 67° 279° (W) 06:47:10
GONETS M04 06 Mar 06:52:08 06:59:12 27° 64° (ENE) 07:06:32
O/OREOS (USA 219) 06 Mar 07:04:19 07:06:38 14° 100° (E) 07:09:11 437.305
RS-15 06 Mar 07:07:01 07:18:30 81° 55° (NE) 07:30:30 29.354- 29.394
HO-68 06 Mar 07:13:40 07:18:09 18° 88° (E) 07:23:00 435.675
STRAND 1 06 Mar 07:26:15 07:28:35 13° 273° (W) 07:30:38 437.568
SO-50 06 Mar 07:26:24 07:29:44 18° 36° (NE) 07:33:11 436.795
Cubesat XI-IV 06 Mar 07:34:39 07:38:39 21° 297° (WNW) 07:42:31 437.490
CUTE-I 06 Mar 07:42:43 07:46:24 19° 299° (WNW) 07:49:54 437.470
SEEDS 06 Mar 07:47:50 07:50:45 18° 91° (E) 07:53:48 437.485
CANX-2 06 Mar 07:56:43 08:00:28 30° 95° (E) 08:04:15 2200.000
CINEMA 3 06 Mar 08:08:39 08:10:40 14° 89° (E) 08:12:52 145.822/145.860
ISS 06 Mar 08:08:44 08:11:54 53° 331° (NNW) 08:15:05 145.825
GOMX 1 06 Mar 08:11:43 08:15:49 41° 97° (E) 08:19:46 467.674
CUTE 1.7 + AOD 2 06 Mar 08:14:31 08:18:34 42° 98° (E) 08:22:39 437.475
UNISAT 6 06 Mar 08:16:01 08:18:18 15° 64° (ENE) 08:20:44 437.425
BRITE-PL 06 Mar 08:26:42 08:31:13 86° 284° (WNW) 08:35:26 437.365/2234.400
DOVE 4 06 Mar 08:28:01 08:32:03 42° 98° (E) 08:35:59 437.250
POPSAT HIP 1 06 Mar 08:29:56 08:31:05 11° 62° (ENE) 08:32:28 437.405
POLYITAN 1 06 Mar 08:31:08 08:32:35 12° 62° (ENE) 08:34:13 437.675
TIGRISAT 06 Mar 08:37:54 08:41:18 23° 68° (ENE) 08:44:45 435.000
O/OREOS (USA 219) 06 Mar 08:41:05 08:45:36 60° 296° (WNW) 08:50:11 437.305
AAUSAT CUBESAT 2 06 Mar 08:43:37 08:47:44 54° 99° (E) 08:51:51 437.432
GONETS M04 06 Mar 08:48:14 08:56:56 70° 266° (W) 09:05:38
COMPASS 1 06 Mar 08:49:17 08:53:31 73° 101° (ESE) 08:57:44 437.405
NANOSAT C BR1 06 Mar 08:49:40 08:52:30 18° 66° (ENE) 08:55:27 145.865
ANTELSAT 06 Mar 08:53:09 08:57:03 34° 70° (ENE) 09:00:57 437.575/2403.000
UWE-3 06 Mar 08:53:09 08:56:09 20° 92° (E) 08:59:16 435.000/436.395/437.385
HO-68 06 Mar 08:59:38 09:06:52 85° 288° (WNW) 09:14:04 435.675
Oscar 11 06 Mar 09:04:52 09:09:01 44° 98° (E) 09:13:11 145.826/435.025
SO-50 06 Mar 09:06:02 09:11:01 89° 237° (WSW) 09:15:56 436.795
BUGSAT 1 06 Mar 09:12:36 09:15:57 23° 67° (ENE) 09:19:23 437.445
RS-15 06 Mar 09:20:29 09:30:01 30° 254° (WSW) 09:39:27 29.354- 29.394
QB50P1 06 Mar 09:22:18 09:26:15 38° 71° (ENE) 09:30:15 145.935-145.965
SEEDS 06 Mar 09:22:48 09:26:47 40° 288° (WNW) 09:30:44 437.485
QB50P2 06 Mar 09:27:27 09:31:31 44° 72° (ENE) 09:35:36 145.880/145.840
DELFI C3 06 Mar 09:27:50 09:31:55 63° 101° (E) 09:35:59 145.870
CANX-2 06 Mar 09:32:47 09:36:19 25° 292° (WNW) 09:39:48 2200.000
HUMSAT D 06 Mar 09:33:00 09:36:16 23° 93° (E) 09:39:36 437.325/437.525
DX 1 06 Mar 09:36:02 09:40:12 42° 99° (E) 09:44:21 434.975-435.025
CUBEBUG 2 06 Mar 09:38:12 09:42:22 76° 101° (E) 09:46:33 437.445
DUCHIFAT 1 06 Mar 09:38:50 09:43:01 57° 73° (ENE) 09:47:13 145.980
CINEMA 3 06 Mar 09:44:15 09:48:18 50° 287° (WNW) 09:52:19 145.822/145.860
ISS 06 Mar 09:46:25 09:48:52 19° 351° (N) 09:51:19 145.825
CUBEBUG 1 06 Mar 09:49:49 09:50:43 11° 87° (E) 09:51:53 437.445
UNISAT 6 06 Mar 09:50:24 09:54:43 58° 259° (W) 09:58:58 437.425
GOMX 1 06 Mar 09:50:42 09:53:41 18° 295° (WNW) 09:56:29 467.674
CUTE 1.7 + AOD 2 06 Mar 09:51:13 09:54:14 19° 294° (WNW) 09:57:09 437.475
AISAT 06 Mar 09:57:42 10:01:38 31° 96° (E) 10:05:36 437.250
FUNcube-1 06 Mar 09:57:45 10:01:56 83° 102° (ESE) 10:06:07 145.935
UKube-1 06 Mar 10:00:22 10:04:44 76° 103° (ESE) 10:09:03 .
ZACube-1 06 Mar 10:00:30 10:04:41 89° 290° (WNW) 10:08:53 437.345
POPSAT HIP 1 06 Mar 10:02:08 10:06:26 78° 256° (WSW) 10:10:44 437.405
POLYITAN 1 06 Mar 10:03:42 10:08:00 74° 259° (W) 10:12:17 437.675
VELOX 1 06 Mar 10:05:11 10:09:17 36° 97° (E) 10:13:23 145.980
DOVE 4 06 Mar 10:06:43 10:09:33 17° 295° (WNW) 10:12:14 437.250
TIGRISAT 06 Mar 10:13:59 10:17:57 33° 263° (W) 10:21:51 435.000
AAUSAT CUBESAT 2 06 Mar 10:20:34 10:23:01 15° 295° (WNW) 10:25:17 437.432
50 SAT 06 Mar 10:22:50 10:26:45 58° 100° (E) 10:30:39 437.505
NANOSAT C BR1 06 Mar 10:23:58 10:28:05 44° 262° (W) 10:32:11 145.865
DANDE 06 Mar 10:24:28 10:27:05 76° 260° (W) 10:29:46 436.750
COMPASS 1 06 Mar 10:27:12 10:28:43 11° 297° (WNW) 10:30:02 437.405
UWE-3 06 Mar 10:29:03 10:32:53 35° 289° (WNW) 10:36:40 435.000/436.395/437.385
ANTELSAT 06 Mar 10:30:29 10:33:57 22° 267° (W) 10:37:19 437.575/2403.000
CUSAT 1 06 Mar 10:30:40 10:33:06 36° 263° (W) 10:35:42 437.405
ESTCUBE 1 06 Mar 10:35:45 10:40:01 38° 97° (E) 10:44:16 437.505/2401.250
Oscar 11 06 Mar 10:41:52 10:44:57 19° 294° (WNW) 10:47:53 145.826/435.025
BUGSAT 1 06 Mar 10:47:25 10:51:18 33° 263° (W) 10:55:11 437.445
GONETS M04 06 Mar 10:48:30 10:52:20 13° 285° (WNW) 10:55:31
HO-68 06 Mar 10:48:56 10:53:42 19° 306° (NW) 10:58:12 435.675
SO-50 06 Mar 10:49:04 10:50:56 12° 252° (WSW) 10:52:32 436.795
QB50P1 06 Mar 10:59:08 11:02:19 20° 268° (W) 11:05:24 145.935-145.965
QB50P2 06 Mar 11:04:49 11:07:42 17° 269° (W) 11:10:27 145.880/145.840
DELFI C3 06 Mar 11:04:52 11:06:40 12° 296° (WNW) 11:08:17 145.870
HUMSAT D 06 Mar 11:08:28 11:12:06 30° 290° (WNW) 11:15:43 437.325/437.525
DX 1 06 Mar 11:13:01 11:16:11 19° 295° (WNW) 11:19:14 434.975-435.025
DUCHIFAT 1 06 Mar 11:17:08 11:19:17 13° 271° (W) 11:21:15 145.980
CUBEBUG 2 06 Mar 11:17:35 11:18:34 11° 298° (WNW) 11:19:20 437.445
CUBEBUG 1 06 Mar 11:23:18 11:27:43 73° 286° (WNW) 11:32:04 437.445
ISS 06 Mar 11:23:34 11:26:06 21° 11° (N) 11:28:39 145.825
TISAT 1 06 Mar 11:29:15 11:32:55 29° 95° (E) 11:36:37 437.305
Oscar 19 06 Mar 11:31:13 11:35:38 31° 67° (ENE) 11:40:09 437.125/150
AISAT 06 Mar 11:34:27 11:38:11 26° 293° (WNW) 11:41:49 437.250
UKube-1 06 Mar 11:38:38 11:40:20 12° 299° (WNW) 11:41:51 .
Gurwin Techsat 1B 06 Mar 11:38:58 11:39:26 10° 56° (ENE) 11:40:13 435.225
SPROUT 06 Mar 11:39:35 11:43:41 43° 98° (E) 11:47:46 437.525
ITAMSAT 1 06 Mar 11:40:42 11:43:19 14° 60° (ENE) 11:46:09 435.822/435.867
VELOX 1 06 Mar 11:42:10 11:45:43 23° 294° (WNW) 11:49:08 145.980
50 SAT 06 Mar 11:59:33 12:01:20 12° 296° (WNW) 12:02:57 437.505
ITUPSAT 1 06 Mar 12:02:26 12:03:25 11° 86° (E) 12:04:44 437.325
ESTCUBE 1 06 Mar 12:13:05 12:16:41 23° 294° (WNW) 12:20:11 437.505/2401.250
SWISSCUBE 06 Mar 12:59:26 13:04:05 46° 99° (E) 13:08:42 437.505
ISS 06 Mar 12:59:46 13:02:59 65° 30° (NNE) 13:06:13 145.825
TISAT 1 06 Mar 13:05:10 13:08:40 25° 292° (WNW) 13:12:05 437.305
BEESAT 06 Mar 13:07:15 13:11:56 50° 100° (E) 13:16:36 436.000
Oscar 19 06 Mar 13:10:17 13:14:57 34° 264° (W) 13:19:35 437.125/150
Gurwin Techsat 1B 06 Mar 13:13:17 13:18:33 69° 73° (ENE) 13:23:52 435.225
SPROUT 06 Mar 13:16:29 13:19:30 18° 294° (WNW) 13:22:24 437.525
ITAMSAT 1 06 Mar 13:16:57 13:22:11 84° 254° (WSW) 13:27:29 435.822/435.867
HORYU 2 06 Mar 13:17:26 13:20:29 19° 65° (ENE) 13:23:40 437.375
AO-7 06 Mar 13:20:35 13:27:18 29° 56° (NE) 13:34:12 29.400- 29.500
ITUPSAT 1 06 Mar 13:37:13 13:42:04 84° 285° (WNW) 13:46:54 437.325
STARS 06 Mar 13:46:38 13:49:16 16° 90° (E) 13:52:03 437.465
YUBILEINY 06 Mar 13:47:41 13:53:11 20° 79° (E) 13:59:10 435.215
KKS-1 06 Mar 13:49:06 13:52:49 26° 94° (E) 13:56:35 437.445
JAS-2 06 Mar 14:16:05 14:20:52 29° 62° (ENE) 14:26:17 435.910
VERMONT LUNAR 06 Mar 14:36:50 14:38:33 13° 150° (SSE) 14:40:20 437.305
ISS 06 Mar 14:36:59 14:39:08 16° 226° (SW) 14:41:12 145.825
SWISSCUBE 06 Mar 14:38:00 14:41:40 22° 295° (WNW) 14:45:14 437.505
BEESAT 06 Mar 14:45:58 14:49:28 20° 296° (WNW) 14:52:49 436.000
HORYU 2 06 Mar 14:52:37 14:56:52 44° 261° (W) 15:01:08 437.375
Gurwin Techsat 1B 06 Mar 14:55:51 14:59:09 16° 272° (W) 15:02:12 435.225
ITAMSAT 1 06 Mar 15:01:53 15:02:38 10° 275° (W) 15:02:59 435.822/435.867
AO-7 06 Mar 15:11:10 15:19:31 72° 255° (WSW) 15:27:51 29.400- 29.500
PHONESAT 2.4 06 Mar 15:11:13 15:12:45 12° 149° (SSE) 15:14:22 2401.200-2431.200
ITUPSAT 1 06 Mar 15:17:50 15:19:17 11° 301° (WNW) 15:20:28 437.325
STARS 06 Mar 15:21:50 15:26:05 49° 288° (WNW) 15:30:18 437.465
KKS-1 06 Mar 15:25:35 15:29:30 31° 291° (WNW) 15:33:21 437.445
MOZHAYETS 4 06 Mar 15:31:03 15:34:06 18° 90° (E) 15:37:18
BEESAT 3 06 Mar 15:31:51 15:35:41 41° 118° (ESE) 15:39:37 437.485
Cubesat XI-IV 06 Mar 15:39:36 15:42:33 15° 60° (ENE) 15:45:42 437.490
YUBILEINY 06 Mar 15:40:13 15:48:58 87° 277° (W) 15:57:51 435.215
CUTE-I 06 Mar 15:46:48 15:50:10 18° 61° (ENE) 15:53:43 437.470
JAS-2 06 Mar 16:00:17 16:05:42 47° 264° (W) 16:11:47 435.910
BEESAT 2 06 Mar 16:01:54 16:06:00 75° 122° (ESE) 16:10:11 435.950
VERMONT LUNAR 06 Mar 16:12:38 16:15:55 39° 165° (SSE) 16:19:12 437.305
AIST 2 06 Mar 16:23:17 16:27:22 47° 119° (ESE) 16:31:32 435.215
AUBIESAT-1 06 Mar 16:27:01 16:31:20 58° 106° (ESE) 16:35:57 437.475
M-CUBED/EXP-1 PRIME 06 Mar 16:28:43 16:33:05 68° 108° (ESE) 16:37:44 437.505
AIST 1 06 Mar 16:44:55 16:48:52 32° 74° (ENE) 16:52:50
PHONESAT 2.4 06 Mar 16:47:15 16:50:38 37° 164° (SSE) 16:54:02 2401.200-2431.200
MOZHAYETS 4 06 Mar 17:07:10 17:11:40 49° 287° (WNW) 17:16:08
AO-7 06 Mar 17:09:55 17:14:00 13° 276° (W) 17:17:26 29.400- 29.500
BEESAT 3 06 Mar 17:10:36 17:13:58 23° 317° (NW) 17:17:19 437.485
O/OREOS (USA 219) 06 Mar 17:11:06 17:15:16 33° 59° (ENE) 17:19:26 437.305
Cubesat XI-IV 06 Mar 17:16:39 17:22:02 82° 255° (WSW) 17:27:28 437.490
CUTE-I 06 Mar 17:24:22 17:29:44 71° 257° (WSW) 17:35:08 437.470
YUBILEINY 06 Mar 17:41:10 17:47:22 20° 302° (WNW) 17:53:14 435.215
CUBESAT XI-V 06 Mar 17:41:25 17:45:36 31° 95° (E) 17:49:46 437.345
BEESAT 2 06 Mar 17:42:03 17:44:43 16° 322° (NW) 17:47:18 435.950
HO-68 06 Mar 17:44:48 17:49:00 17° 53° (NE) 17:53:29 435.675
VERMONT LUNAR 06 Mar 17:50:09 17:53:35 56° 182° (S) 17:57:01 437.305
STRAND 1 06 Mar 17:53:43 17:57:53 25° 93° (E) 18:02:08 437.568
BRITE-PL 06 Mar 18:01:20 18:04:43 17° 64° (ENE) 18:08:12 437.365/2234.400
AIST 2 06 Mar 18:02:47 18:06:13 23° 317° (NW) 18:09:38 435.215
AUBIESAT-1 06 Mar 18:02:59 18:05:53 17° 300° (WNW) 18:08:46 437.475
M-CUBED/EXP-1 PRIME 06 Mar 18:05:04 18:07:39 15° 300° (WNW) 18:10:09 437.505
PRISM 06 Mar 18:12:00 18:16:13 62° 101° (E) 18:20:24 437.425
AIST 1 06 Mar 18:22:55 18:26:24 23° 271° (W) 18:29:46
PHONESAT 2.4 06 Mar 18:25:15 18:28:50 57° 181° (S) 18:32:26 2401.200-2431.200
SEEDS 06 Mar 18:41:52 18:44:18 16° 65° (ENE) 18:46:54 437.485
O/OREOS (USA 219) 06 Mar 18:50:44 18:54:35 26° 256° (WSW) 18:58:20 437.305
CANX-2 06 Mar 18:51:06 18:54:30 25° 68° (ENE) 18:58:00 2200.000
PCSat 06 Mar 18:51:30 18:56:28 39° 113° (ESE) 19:01:31 145.827
Cubesat XI-IV 06 Mar 19:02:28 19:03:08 10° 276° (W) 19:03:23 437.490
CUTE 1.7 + AOD 2 06 Mar 19:08:35 19:12:22 34° 71° (ENE) 19:16:14 437.475
CINEMA 3 06 Mar 19:11:18 19:14:16 18° 66° (ENE) 19:17:18 145.822/145.860
CUBESAT XI-V 06 Mar 19:18:54 19:22:59 29° 292° (WNW) 19:26:58 437.345
GOMX 1 06 Mar 19:19:50 19:24:59 57° 74° (ENE) 19:29:53 467.674
VERMONT LUNAR 06 Mar 19:28:03 19:31:12 31° 199° (SSW) 19:34:20 437.305
HO-68 06 Mar 19:28:37 19:35:45 80° 72° (ENE) 19:42:57 435.675
STRAND 1 06 Mar 19:32:26 19:37:17 41° 291° (WNW) 19:42:03 437.568
DOVE 4 06 Mar 19:33:54 19:38:48 54° 74° (ENE) 19:43:28 437.250
AAUSAT CUBESAT 2 06 Mar 19:35:39 19:39:31 41° 72° (ENE) 19:43:27 437.432
BRITE-PL 06 Mar 19:37:13 19:42:48 72° 259° (WSW) 19:48:06 437.365/2234.400
COMPASS 1 06 Mar 19:41:37 19:45:40 55° 74° (ENE) 19:49:46 437.405
PRISM 06 Mar 19:49:05 19:51:16 14° 297° (WNW) 19:53:17 437.425
UWE-3 06 Mar 19:51:43 19:54:51 20° 67° (ENE) 19:58:02 435.000/436.395/437.385
GONETS M04 06 Mar 19:55:25 20:02:21 29° 83° (E) 20:09:34
Oscar 11 06 Mar 20:00:41 20:04:39 38° 71° (ENE) 20:08:40 145.826/435.025
PHONESAT 2.4 06 Mar 20:03:41 20:07:02 35° 197° (SSW) 20:10:23 2401.200-2431.200
SEEDS 06 Mar 20:15:43 20:19:47 49° 261° (W) 20:23:52 437.485
DELFI C3 06 Mar 20:16:47 20:20:36 43° 72° (ENE) 20:24:28 145.870
HUMSAT D 06 Mar 20:26:32 20:29:30 20° 67° (ENE) 20:32:34 437.325/437.525
CANX-2 06 Mar 20:26:39 20:30:22 29° 265° (W) 20:34:04 2200.000
DX 1 06 Mar 20:32:31 20:36:40 43° 71° (ENE) 20:40:51 434.975-435.025
PCSat 06 Mar 20:35:02 20:39:58 34° 311° (NW) 20:44:53 145.827
CUBEBUG 2 06 Mar 20:37:15 20:41:42 72° 75° (ENE) 20:46:00 437.445
CUTE 1.7 + AOD 2 06 Mar 20:45:11 20:48:27 21° 268° (W) 20:51:36 437.475
CINEMA 3 06 Mar 20:46:36 20:51:12 52° 261° (W) 20:55:36 145.822/145.860
CUBEBUG 1 06 Mar 20:47:12 20:48:47 12° 62° (ENE) 20:50:34 437.445
FUNcube-1 06 Mar 20:54:24 20:58:43 74° 76° (ENE) 21:02:57 145.935
UKube-1 06 Mar 20:56:04 21:00:24 73° 75° (ENE) 21:04:46 .
AISAT 06 Mar 20:56:38 21:00:38 33° 69° (ENE) 21:04:41 437.250
ZACube-1 06 Mar 20:57:19 21:01:40 81° 75° (ENE) 21:05:56 437.345
GOMX 1 06 Mar 20:59:42 21:03:27 19° 269° (W) 21:06:53 467.674
VELOX 1 06 Mar 21:03:50 21:07:56 37° 70° (ENE) 21:12:07 145.980
50 SAT 06 Mar 21:10:27 21:14:08 39° 72° (ENE) 21:17:51 437.505
AAUSAT CUBESAT 2 06 Mar 21:12:37 21:15:26 17° 269° (W) 21:18:06 437.432
DOVE 4 06 Mar 21:13:23 21:16:53 18° 269° (W) 21:20:06 437.250
HO-68 06 Mar 21:19:19 21:24:23 19° 271° (W) 21:29:09 435.675
COMPASS 1 06 Mar 21:19:48 21:21:49 13° 272° (W) 21:23:36 437.405
UWE-3 06 Mar 21:27:04 21:31:12 39° 262° (W) 21:35:14 435.000/436.395/437.385
RS-15 06 Mar 21:32:14 21:42:14 46° 111° (ESE) 21:52:31 29.354- 29.394
ESTCUBE 1 06 Mar 21:36:22 21:40:35 40° 71° (ENE) 21:44:52 437.505/2401.250
Oscar 11 06 Mar 21:37:50 21:41:01 20° 268° (W) 21:44:07 145.826/435.025
UNISAT 6 06 Mar 21:41:42 21:45:17 25° 94° (E) 21:48:57 437.425
PHONESAT 2.4 06 Mar 21:43:39 21:44:54 11° 212° (SSW) 21:46:02 2401.200-2431.200
POPSAT HIP 1 06 Mar 21:47:53 21:50:23 16° 90° (E) 21:53:02 437.405
POLYITAN 1 06 Mar 21:49:34 21:52:15 17° 91° (E) 21:55:03 437.675
GONETS M04 06 Mar 21:50:05 21:58:40 63° 283° (WNW) 22:07:18
DELFI C3 06 Mar 21:53:37 21:56:05 15° 270° (W) 21:58:26 145.870
DANDE 06 Mar 21:55:50 21:58:59 15° 93° (E) 22:01:59 436.750
CUSAT 1 06 Mar 21:58:25 22:01:58 18° 95° (E) 22:05:08 437.405
HUMSAT D 06 Mar 22:01:12 22:05:06 37° 263° (W) 22:08:57 437.325/437.525
TIGRISAT 06 Mar 22:04:11 22:08:16 42° 99° (E) 22:12:26 435.000
NANOSAT C BR1 06 Mar 22:08:26 22:11:58 26° 94° (E) 22:15:33 145.865
DX 1 06 Mar 22:10:00 22:13:09 19° 268° (W) 22:16:11 434.975-435.025
CUBEBUG 2 06 Mar 22:17:45 22:18:57 11° 273° (W) 22:19:52 437.445
CUBEBUG 1 06 Mar 22:20:09 22:24:36 78° 257° (WSW) 22:29:05 437.445
ANTELSAT 06 Mar 22:20:12 22:24:31 66° 101° (ESE) 22:28:53 437.575/2403.000
TISAT 1 06 Mar 22:22:45 22:26:17 26° 68° (ENE) 22:29:53 437.305
BUGSAT 1 06 Mar 22:28:50 22:32:32 31° 96° (E) 22:36:13 437.445
AISAT 06 Mar 22:33:33 22:37:19 25° 266° (W) 22:41:01 437.250
SPROUT 06 Mar 22:34:43 22:38:43 38° 71° (ENE) 22:42:46 437.525
UKube-1 06 Mar 22:36:04 22:37:10 11° 273° (W) 22:38:00 .
VELOX 1 06 Mar 22:41:09 22:44:40 22° 267° (W) 22:48:07 145.980
QB50P1 06 Mar 22:42:05 22:46:17 63° 101° (E) 22:50:28 145.935-145.965
BEESAT 2 06 Mar 22:44:41 22:45:48 11° 33° (NNE) 22:47:03 435.950
50 SAT 06 Mar 22:46:45 22:49:21 16° 269° (W) 22:51:49 437.505
QB50P2 06 Mar 22:47:34 22:51:49 74° 102° (ESE) 22:56:01 145.880/145.840
DUCHIFAT 1 06 Mar 22:58:32 23:02:47 86° 278° (W) 23:06:58 145.980
ITUPSAT 1 06 Mar 23:09:35 23:12:20 16° 62° (ENE) 23:15:16 437.325
ESTCUBE 1 06 Mar 23:14:12 23:17:40 21° 268° (W) 23:21:03 437.505/2401.250
UNISAT 6 06 Mar 23:18:18 23:22:07 30° 291° (WNW) 23:25:54 437.425
SO-50 06 Mar 23:22:24 23:26:00 23° 113° (ESE) 23:29:47 436.795
POPSAT HIP 1 06 Mar 23:22:32 23:26:36 46° 288° (WNW) 23:30:37 437.405
POLYITAN 1 06 Mar 23:24:26 23:28:27 43° 288° (WNW) 23:32:26 437.675
DANDE 06 Mar 23:36:07 23:42:19 66° 281° (WNW) 23:46:53 436.750
CUSAT 1 06 Mar 23:39:23 23:44:49 47° 282° (WNW) 23:48:53 437.405
TIGRISAT 06 Mar 23:41:44 23:44:47 19° 294° (WNW) 23:47:46 435.000
RS-15 06 Mar 23:43:44 23:54:27 57° 315° (NW) 00:05:22 29.354- 29.394
NANOSAT C BR1 06 Mar 23:44:12 23:47:50 28° 291° (WNW) 23:51:23 145.865
BEESAT 3 06 Mar 23:50:05 23:53:57 37° 49° (NE) 23:57:46 437.485
GONETS M04 06 Mar 23:53:54 23:57:52 13° 308° (NW) 00:01:16
TISAT 1 06 Mar 23:58:17 00:02:02 29° 265° (W) 00:05:46 437.305
ANTELSAT 06 Mar 23:58:48 00:00:53 13° 297° (WNW) 00:02:47 437.575/2403.000
BUGSAT 1 07 Mar 00:04:38 00:07:54 22° 293° (WNW) 00:11:03 437.445
SWISSCUBE 07 Mar 00:06:55 00:11:37 59° 72° (ENE) 00:16:22 437.505
SPROUT 07 Mar 00:11:43 00:15:00 20° 268° (W) 00:18:10 437.525
BEESAT 07 Mar 00:14:38 00:19:21 65° 74° (ENE) 00:24:07 436.000
QB50P1 07 Mar 00:19:39 00:21:44 13° 297° (WNW) 00:23:37 145.935-145.965
BEESAT 2 07 Mar 00:20:44 00:24:53 62° 53° (NE) 00:28:57 435.950
QB50P2 07 Mar 00:25:43 00:27:12 11° 298° (WNW) 00:28:28 145.880/145.840
AIST 2 07 Mar 00:44:14 00:48:21 43° 50° (NE) 00:52:24 435.215
STARS 07 Mar 00:44:57 00:47:48 18° 65° (ENE) 00:50:47 437.465
ITUPSAT 1 07 Mar 00:45:00 00:49:46 66° 259° (W) 00:54:34 437.325
KKS-1 07 Mar 00:48:23 00:52:10 28° 68° (ENE) 00:56:00 437.445
SO-50 07 Mar 01:01:49 01:06:17 45° 311° (NW) 01:10:55 436.795
Oscar 19 07 Mar 01:20:07 01:25:16 78° 102° (ESE) 01:30:25 437.125/150
BEESAT 3 07 Mar 01:28:33 01:31:52 23° 246° (WSW) 01:35:05 437.485
Gurwin Techsat 1B 07 Mar 01:29:06 01:33:24 25° 93° (E) 01:37:48 435.225
ITAMSAT 1 07 Mar 01:29:13 01:33:51 32° 95° (E) 01:38:31 435.822/435.867
SWISSCUBE 07 Mar 01:46:58 01:49:57 16° 271° (W) 01:52:45 437.505
YUBILEINY 07 Mar 01:49:20 01:57:52 50° 74° (ENE) 02:06:23 435.215
BEESAT 07 Mar 01:55:05 01:57:45 14° 272° (W) 02:00:11 436.000
BEESAT 2 07 Mar 02:00:30 02:02:36 13° 250° (WSW) 02:04:31 435.950
RS-15 07 Mar 02:01:08 02:10:00 26° 346° (NNW) 02:18:58 29.354- 29.394
STARS 07 Mar 02:19:38 02:23:57 49° 260° (W) 02:28:15 437.465
AIST 2 07 Mar 02:23:29 02:26:43 21° 247° (WSW) 02:29:47 435.215
KKS-1 07 Mar 02:24:49 02:28:46 29° 265° (W) 02:32:40 437.445
MOZHAYETS 4 07 Mar 02:34:20 02:37:31 19° 65° (ENE) 02:40:50
HORYU 2 07 Mar 02:43:03 02:47:00 31° 96° (E) 02:51:00 437.375
SO-50 07 Mar 02:46:47 02:48:09 11° 333° (NNW) 02:49:23 436.795
Oscar 19 07 Mar 03:01:09 03:04:04 15° 299° (WNW) 03:06:46 437.125/150
JAS-2 07 Mar 03:07:15 03:13:39 29° 91° (E) 03:20:23 435.910
Gurwin Techsat 1B 07 Mar 03:08:33 03:13:36 44° 290° (WNW) 03:18:35 435.225
ITAMSAT 1 07 Mar 03:08:41 03:13:23 34° 293° (WNW) 03:17:59 435.822/435.867
AO-7 07 Mar 03:11:57 03:19:25 37° 96° (E) 03:27:00 29.400- 29.500
AUBIESAT-1 07 Mar 03:17:22 03:20:43 87° 72° (ENE) 03:24:18 437.475
M-CUBED/EXP-1 PRIME 07 Mar 03:19:35 03:22:56 76° 253° (WSW) 03:26:30 437.505
